Weather History for KRWI - August, 2013

Change the Weather History Date:

Monday, August 19, 2013

  Actual Average Record
Temperature  
Mean Temperature 70 °F -  
Max Temperature 75 °F 87 °F 100 °F (1988)
Min Temperature 66 °F 67 °F 57 °F (1976)
Cooling Degree Days 6    
Growing Degree Days 20 (Base 50)    
Moisture  
Dew Point 68 °F    
Average Humidity 90    
Maximum Humidity 94    
Minimum Humidity 83    
Precipitation  
Precipitation 0.16 in - - ()
Sea Level Pressure  
Sea Level Pressure 30.16 in    
Wind  
Wind Speed 2 mph (NNE)    
Max Wind Speed 5 mph    
Max Gust Speed -    
Visibility 9 miles    
Events Rain    
Averages and records for this station are not official NWS values.
T = Trace of Precipitation, MM = Missing Value Source: NWS Daily Summary

Daily Weather History Graph

Daily Weather History Graph

Search for Another Location

Airport or City:

Trip Planner

Search our weather history database for the weather conditions in past years. The results will help you decide how hot, cold, wet, or windy it might be!

Date:

Astronomy

Aug. 19, 2013 Rise Set
Actual Time 6:33 AM EDT 7:56 PM EDT
Civil Twilight 6:06 AM EDT 8:22 PM EDT
Nautical Twilight 5:34 AM EDT 8:54 PM EDT
Astronomical Twilight 5:00 AM EDT 9:28 PM EDT
Moon 6:45 PM EDT (8/19) 4:51 AM EDT (8/19)
Length of Visible Light 14h 16m
Length of Day
13h 22m
Waxing Gibbous, 97% of the Moon is Illuminated
Aug 19
Waxing Gibbous
Aug 20
Full
Aug 28
Last Quarter
Sep 5
New
Sep 12
First Quarter

Hourly Weather History & Observations

Time (EDT) Temp. Dew Point Humidity Pressure Visibility Wind Dir Wind Speed Gust Speed Precip Events Conditions
12:05 AM 68.0 °F 66.2 °F 94% 30.21 in 10.0 mi NNE 4.6 mph - N/A   Scattered Clouds
12:15 AM 69.8 °F 66.2 °F 88% 30.21 in 10.0 mi NNE 4.6 mph - N/A   Mostly Cloudy
12:53 AM 68.0 °F 66.0 °F 93% 30.20 in 10.0 mi NNE 4.6 mph - N/A   Scattered Clouds
1:25 AM 68.0 °F 66.2 °F 94% 30.19 in 10.0 mi NNE 4.6 mph - N/A   Mostly Cloudy
1:53 AM 68.0 °F 66.0 °F 93% 30.18 in 10.0 mi Calm Calm - N/A   Overcast
2:53 AM 68.0 °F 66.0 °F 93% 30.17 in 10.0 mi Calm Calm - N/A   Overcast
3:53 AM 68.0 °F 64.9 °F 90% 30.17 in 10.0 mi NE 3.5 mph - N/A   Overcast
4:53 AM 68.0 °F 64.9 °F 90% 30.16 in 10.0 mi Calm Calm - N/A   Overcast
5:53 AM 66.9 °F 64.9 °F 93% 30.17 in 5.0 mi Calm Calm - 0.03 in Rain Light Rain
6:08 AM 68.0 °F 64.4 °F 88% 30.17 in 8.0 mi Calm Calm - 0.01 in Rain Light Rain
6:53 AM 68.0 °F 66.0 °F 93% 30.17 in 7.0 mi NNW 4.6 mph - 0.02 in Rain Light Rain
7:12 AM 68.0 °F 66.2 °F 94% 30.17 in 8.0 mi NW 4.6 mph - 0.00 in   Overcast
7:53 AM 68.0 °F 66.0 °F 93% 30.18 in 7.0 mi North 4.6 mph - 0.00 in   Overcast
8:53 AM 68.0 °F 66.0 °F 93% 30.17 in 10.0 mi NE 3.5 mph - N/A   Overcast
9:53 AM 69.1 °F 66.9 °F 93% 30.17 in 10.0 mi Calm Calm - 0.00 in   Overcast
10:38 AM 69.8 °F 66.2 °F 88% 30.18 in 8.0 mi Calm Calm - 0.01 in Rain Light Rain
10:53 AM 70.0 °F 66.9 °F 90% 30.18 in 10.0 mi Calm Calm - 0.02 in Rain Light Rain
11:06 AM 69.8 °F 66.2 °F 88% 30.18 in 9.0 mi Calm Calm - 0.00 in Rain Light Rain
11:36 AM 69.8 °F 68.0 °F 94% 30.19 in 8.0 mi Calm Calm - 0.03 in Rain Light Rain
11:53 AM 70.0 °F 68.0 °F 93% 30.19 in 8.0 mi SSE 3.5 mph - 0.03 in Rain Light Rain
12:53 PM 70.0 °F 68.0 °F 93% 30.17 in 9.0 mi ESE 3.5 mph - 0.05 in Rain Light Rain
1:53 PM 72.0 °F 69.1 °F 91% 30.16 in 10.0 mi Calm Calm - 0.01 in   Overcast
2:53 PM 73.0 °F 69.1 °F 87% 30.15 in 10.0 mi Calm Calm - 0.00 in   Overcast
3:41 PM 73.4 °F 69.8 °F 88% 30.14 in 10.0 mi Calm Calm - N/A   Overcast
3:53 PM 73.9 °F 69.1 °F 85% 30.13 in 10.0 mi Calm Calm - N/A   Overcast
4:02 PM 73.4 °F 69.8 °F 88% 30.14 in 10.0 mi Calm Calm - N/A   Overcast
4:46 PM 75.2 °F 69.8 °F 83% 30.12 in 10.0 mi South 3.5 mph - N/A   Overcast
4:53 PM 73.9 °F 70.0 °F 87% 30.12 in 10.0 mi Calm Calm - N/A   Overcast
5:53 PM 75.0 °F 70.0 °F 84% 30.10 in 10.0 mi Calm Calm - 0.00 in   Mostly Cloudy
6:53 PM 75.0 °F 70.0 °F 84% 30.11 in 10.0 mi Calm Calm - 0.00 in   Overcast
7:11 PM 73.4 °F 69.8 °F 88% 30.12 in 10.0 mi Calm Calm - N/A   Overcast
7:35 PM 73.4 °F 69.8 °F 88% 30.12 in 10.0 mi NNW 3.5 mph - N/A   Overcast
7:53 PM 73.0 °F 70.0 °F 90% 30.11 in 10.0 mi North 3.5 mph - N/A   Mostly Cloudy
8:53 PM 72.0 °F 70.0 °F 93% 30.13 in 10.0 mi Calm Calm - N/A   Overcast
9:53 PM 72.0 °F 70.0 °F 93% 30.13 in 10.0 mi Calm Calm - N/A   Overcast
10:53 PM 72.0 °F 70.0 °F 93% 30.13 in 7.0 mi Calm Calm - N/A   Overcast
11:53 PM 71.1 °F 69.1 °F 93% 30.14 in 3.0 mi Calm Calm - N/A   Mostly Cloudy